Cloud_Cover
0 0 0 0 0 0 0 5 74 100 99 100 62 27 98 0 0 0 0 0 0 0 0 0 7 6 2 0 0 0 0 0 0 2 4 18 20 16 22 100 89 56 73 63
0 0 0 0 0 0 0 2 5 5 24 57 60 6 0 0 0 0 0 0 0 0 0 0 0 0 0 0 0 0 0 2 17 40 23 17 17 98 87 100 73 86 100 93
0 0 0 0 0 0 0 5 78 8 46 5 5 19 86 3 0 0 0 0 0 0 0 0 0 0 0 0 0 0 9 17 14 22 24 50 87 100 94 62 36 39 29 18
1 3 1 0 0 0 0 2 4 5 3 3 3 33 11 0 0 0 0 0 3 3 0 0 0 0 0 0 0 5 12 13 28 27 50 34 91 97 57 58 24 8 3 25
5 65 10 0 1 1 0 17 1 5 5 0 0 0 0 0 0 0 0 3 5 5 0 23 0 0 0 0 0 1 2 66 66 42 30 38 96 46 100 5 5 4 5 5
0 82 96 8 18 2 5 5 86 4 2 0 0 0 9 0 0 2 3 4 5 5 24 31 5 0 0 0 0 1 5 100 100 100 63 94 57 100 5 30 44 39 54 37
52 100 51 50 47 14 0 6 4 0 0 0 0 0 1 0 0 0 0 0 5 33 47 40 21 4 7 2 1 78 98 100 100 100 98 94 42 92 16 7 28 46 78 94
4 37 90 39 73 92 77 2 2 1 0 0 0 0 0 0 0 0 0 0 0 70 100 66 24 17 15 54 98 100 100 100 94 100 29 5 92 52 18 46 64 53 17 18
95 43 0 8 99 100 10 0 0 0 0 5 4 0 0 0 0 0 0 3 52 100 100 93 6 21 85 72 84 94 100 100 100 100 100 94 36 99 100 100 100 100 20 5
100 22 20 100 100 100 10 0 0 0 0 5 5 5 1 0 0 0 1 71 99 100 100 100 100 100 96 81 100 100 100 100 100 100 100 100 100 100 100 100 100 34 52 80
100 59 80 100 76 100 78 0 2 0 0 0 4 5 5 5 5 5 13 77 100 100 100 100 100 100 100 100 100 100 100 100 100 100 100 100 100 100 100 100 100 64 11 27
100 34 1 11 20 2 0 0 0 5 4 2 5 0 5 5 5 0 87 100 100 90 64 97 100 100 100 100 100 100 100 100 100 100 100 100 100 100 87 98 100 51 24 6
3 0 0 0 0 0 0 0 0 0 0 0 5 22 5 5 5 44 16 41 73 99 100 100 100 100 100 100 100 100 100 100 100 100 100 100 100 100 100 100 100 100 95 5
0 0 0 0 0 0 0 0 25 0 0 0 1 58 64 8 8 38 100 99 100 100 100 99 100 100 100 100 100 100 100 100 100 100 100 100 100 100 100 100 97 79 60 55
32 5 2 0 0 0 0 0 0 0 0 0 0 1 5 50 41 98 100 100 99 100 100 99 100 100 100 100 96 100 100 100 100 100 100 100 100 100 100 84 5 30 96 40
3 4 3 4 5 5 0 0 0 0 0 0 0 0 4 26 100 100 100 100 100 100 100 100 96 100 100 100 98 100 100 100 100 100 100 100 100 100 88 62 18 100 88 5
0 0 0 0 0 0 0 0 4 1 0 0 0 13 28 91 100 100 100 100 100 100 100 64 28 100 99 66 92 100 100 100 100 100 100 100 100 97 83 100 100 62 5 4
0 0 0 0 0 1 3 5 4 5 1 1 37 56 95 97 100 100 100 100 77 88 72 54 30 63 83 100 100 100 100 100 100 100 100 96 100 100 100 96 11 54 12 46
0 0 0 0 0 22 73 5 5 5 68 35 33 65 98 100 100 100 100 100 100 100 100 100 100 100 100 100 92 100 100 100 100 100 72 100 100 100 57 6 88 56 9 67
0 0 0 0 1 100 76 16 5 46 65 5 10 100 100 100 84 79 100 100 100 100 100 100 100 65 66 94 100 100 100 100 100 100 100 100 48 13 92 100 42 5 5 5
5 0 0 0 23 97 100 100 18 85 20 9 5 77 100 96 97 100 100 97 100 100 100 100 100 100 100 100 100 100 100 100 100 100 79 26 98 100 100 7 5 5 5 6
51 2 0 3 24 87 100 100 97 5 5 11 99 100 100 74 87 100 100 100 100 100 100 100 100 100 100 100 100 100 100 100 100 100 94 100 100 100 5 0 6 5 20 53
13 61 43 100 100 100 100 100 98 32 46 95 100 100 87 32 12 93 77 91 100 100 100 100 100 100 100 100 100 100 100 100 100 100 100 100 100 10 0 5 5 45 44 14
5 57 88 100 100 79 100 100 100 100 100 100 100 96 10 5 5 5 99 96 47 100 100 100 100 100 100 100 100 100 100 100 100 100 100 81 0 0 6 38 87 75 67 16
11 76 63 72 75 46 98 99 100 100 100 100 66 5 4 6 17 34 14 45 100 100 100 100 100 100 100 100 100 100 100 100 100 100 0 1 3 6 12 67 57 74 48 48
0 65 62 31 8 55 21 100 100 100 60 100 98 40 38 48 86 62 0 2 5 26 100 100 100 100 100 100 100 100 98 41 2 0 0 0 6 25 71 95 100 96 85 34
0 44 66 93 74 96 100 96 56 27 97 58 68 45 62 78 52 2 20 65 23 67 100 67 41 44 17 12 1 1 0 0 0 2 4 7 27 65 80 98 88 100 100 26